STARLINK-11177, 60118

Orbit data source: Space-Track

STARLINK-11177, 60118 is a payload satellite owned by SpaceX/Seattle (US) in LEO that was launched on Mon, 24 Jun 2024 UTC via an FALCON 9 launch vehicle from the Air Force Western Test Range (AFWTR). Payload-class satellites include a variety of spacecraft equipped with specific instruments for various scientific and technological missions. These include communications satellites like Starlink; space stations such as the ISS; scientific satellites like the Hubble; Earth observation satellites from companies like Planet Labs, Umbra, and HawkEye 360; GPS; miniature CubeSats for education and research; and military/defense satellites.

Loading next visibility...
Identifier
60118, 2024-118F
Orbit
LEO
Last TLE update
6 hours ago
Origin
Manufacturer
SpaceX/Seattle
Mission
Operational Commercial Communications
Bus & Motor
STARLINK V2M, Unknown motor
Mass
730 kg wet, ~700 kg dry
Launch date (UTC)
2024-06-24 (1 year ago)
Launch vehicle
FALCON 9
Launch site
Air Force Western Test Range (AFWTR)
Object type
Payload
Rocket body
Debris
Shape & HBR
Box + 2 Pan, 29 m
Radar Cross Section
36.964 m², Large (>1 m²)

Expand to show TLE details & history

TLE from 6 hours ago
0 STARLINK-11177
1 60118U 24118F   25189.14062521 -.00001735  00000-0 -94739-5 0  9993
2 60118  53.1589 346.8367 0000596  60.0884 300.0193 15.69711167 60637
Epoch: 2025-07-08T03:22Z
TLE epoch observation values (Epoch: 2025-07-08T03:22:30.018Z)
Latitude
-0.00001°
Longitude
9.87174°
Altitude
360.437 km
Speed
7.694 km/s
True Right ascension
23h 07m 20s
True Declination
0° 00' 00"
Sunlit
Object was in full shadow at epoch
Visualization orbit readout
Latitude
-43.25657°
Longitude
-126.7704°
Altitude
374.628 km
Speed
7.684 km/s
Apparent Right ascension
11h 32m 53s
Apparent Declination
-47° 54' 32"
Sunlit
Object is in full shadow
Visualization observer readout
Local Sidereal Time
21:04:04
Azimuth
240.793° WSW
Elevation
-62.332°
Doppler factor
1
Orbital elements
Apogee altitude
360.386 km
Perigee altitude
359.583 km
Semi-major axis
6,738.121 km
Eccentricity
0.00006
Inclination
53.1589°
RAAN
346.8367°
Arg. of periapsis
60.0884°
True anomaly
Unknown
Mean anomaly
300.0193°
Eccentric anomaly
Unknown
Mean motion
3.92405 °/min
Orbital period
91.74 mins
BSTAR
-0.0000094739
Loading maneuver chart data...
Loading SW <> Apogee altitude chart data...
Loading historical data...
Loading historical data...
Loading historical data...
Loading historical data...
Loading historical data...
Loading historical data...
Loading historical data...

STARLINK-11177 Visibility forecast

Observer location: undefined°, undefined°

Span
Click to sort rows by Start time (UTC) header in descending order
Start Az.
Max El. time (UTC)
Max El. Az.
Max El.
End time (UTC)
End Az.
4 mins2025-07-08 12:42:16.570Z190.272° SSW2025-07-08 12:44:16.570Z145.264° SSE23.546°2025-07-08 12:46:16.570Z84.06° E
|